Probability
0 0 0 0 0 0 1 1 2 4 6 6 9 11 14 18 21 19 20 24 29 30 26 21 19 18 19 19 15 12 14 16 17 17 17 18 19 20 21 21 19 16 14 13
0 0 0 0 0 1 2 3 3 6 8 9 10 13 14 17 19 19 20 22 28 31 27 21 19 18 18 18 17 15 15 17 18 19 18 17 18 20 22 23 21 17 13 12
0 0 0 1 2 4 6 6 6 7 9 11 14 15 15 16 19 22 22 23 26 29 27 22 19 18 18 18 19 20 19 18 18 20 20 18 18 19 21 22 19 15 12 11
0 0 1 2 4 7 9 10 8 9 11 13 15 16 17 18 21 25 26 25 24 24 22 20 19 19 18 19 21 22 21 18 17 20 21 20 18 18 19 17 14 12 11 10
0 0 1 2 3 5 9 10 10 12 15 14 14 16 17 18 21 24 27 26 23 20 18 17 17 17 17 17 19 21 20 18 17 19 22 22 19 18 17 14 12 13 12 11
0 1 2 3 2 2 5 7 8 13 15 14 13 13 14 16 18 21 24 23 21 20 18 14 13 14 15 14 15 17 18 17 17 19 21 22 19 17 16 15 14 14 15 14
0 2 3 4 5 4 3 3 5 10 13 12 11 13 15 18 19 21 22 22 22 21 18 13 11 12 13 12 12 12 14 17 18 19 21 20 17 15 15 15 16 16 17 17
1 2 3 6 9 9 6 4 6 9 11 12 13 17 21 22 22 24 24 24 24 22 18 13 11 11 11 11 9 9 11 15 17 19 19 18 16 14 15 16 17 18 18 18
3 4 5 9 12 11 9 9 10 12 13 16 19 22 25 24 23 25 26 23 22 20 17 13 11 10 9 8 8 8 9 12 15 16 16 16 15 15 16 18 19 20 19 19
8 7 8 10 12 11 11 12 13 14 16 20 23 24 24 23 23 24 23 20 17 15 14 13 12 11 10 8 8 8 8 10 13 14 13 12 13 15 16 18 20 21 20 18
9 8 8 10 11 11 11 12 13 15 18 22 24 23 22 22 22 21 19 16 14 12 11 12 13 12 11 10 9 9 9 10 12 12 9 8 10 12 14 16 17 18 17 16
7 7 8 9 10 11 12 12 13 15 18 20 22 21 20 20 19 16 15 14 13 11 10 10 11 11 10 9 9 10 9 10 12 10 7 6 7 8 9 11 11 12 12 12
6 6 8 8 9 11 12 11 11 14 16 17 19 18 17 16 14 13 13 13 12 11 10 8 8 7 7 6 6 6 6 8 9 8 5 4 5 6 6 7 7 7 6 6
5 7 8 8 8 9 10 10 9 12 15 16 17 16 15 13 12 11 12 11 10 9 9 8 6 4 3 3 3 3 3 4 5 4 2 2 3 4 5 6 6 6 4 3
6 7 7 7 8 8 9 9 9 11 13 14 14 12 12 11 10 10 10 9 9 8 9 9 7 5 3 2 3 3 3 2 2 2 1 1 1 2 3 5 6 6 6 5
6 6 6 6 6 6 7 8 8 8 9 9 8 8 7 7 8 8 8 8 8 8 8 8 8 7 4 3 4 5 5 4 3 3 2 1 0 1 1 3 5 6 6 6
6 6 6 5 4 4 4 4 5 5 4 3 3 4 4 4 5 6 6 6 6 7 6 6 6 6 5 5 6 7 7 6 5 4 4 3 1 0 0 2 4 5 5 5
6 5 4 4 3 3 2 2 2 3 3 2 2 3 3 3 3 4 6 6 6 6 6 5 4 4 4 5 6 7 7 6 5 4 4 3 2 0 0 1 1 2 2 3
7 5 3 3 3 3 2 1 2 3 3 3 3 3 2 2 2 3 5 6 6 6 5 4 3 3 4 5 5 5 4 4 3 3 3 3 2 1 0 0 0 1 1 1
4 2 1 1 2 2 2 2 3 3 3 4 4 2 1 1 1 2 4 4 4 4 4 3 3 4 4 4 3 3 3 2 2 2 2 2 2 1 1 1 1 1 1 1
1 0 0 0 1 1 1 1 1 2 2 2 3 2 1 1 2 4 4 4 3 3 3 2 3 4 3 2 1 1 1 1 1 1 1 1 1 1 1 1 1 1 1 0
0 0 1 1 0 0 0 0 1 2 2 1 2 3 4 3 4 5 6 5 4 3 2 1 1 1 1 1 0 0 0 0 0 0 0 0 0 0 1 1 0 0 0 0
0 0 1 2 1 1 1 1 1 2 2 2 3 5 6 6 6 6 6 6 5 3 1 0 0 0 0 0 0 0 0 0 0 0 0 0 0 0 0 0 0 0 0 0
0 0 1 2 2 2 2 1 1 1 1 2 4 6 6 6 6 6 6 5 3 1 0 0 0 0 0 0 0 0 0 0 0 0 1 1 1 0 0 0 0 0 0 0
1 0 0 1 2 2 2 1 1 2 1 2 5 6 6 6 5 5 4 3 1 0 0 0 0 0 0 0 0 0 0 0 0 1 2 2 1 0 0 0 0 0 0 0
1 0 0 0 1 1 1 2 4 4 3 3 4 5 5 4 3 2 1 1 0 0 0 0 0 0 0 0 0 0 0 0 1 1 2 2 1 0 0 0 0 0 0 0
1 0 0 0 0 0 1 4 6 5 4 3 4 4 4 3 1 0 0 0 0 0 0 0 0 0 0 0 0 0 0 1 2 2 2 1 0 0 0 0 0 0 0 0
Wind_Speed
3 3 2 2 3 2 3 6 7 6 6 6 6 7 6 5 5 5 5 5 6 6 5 4 4 4 5 5 4 5 6 6 6 5 5 4 4 4 3 3 3 3 2 1
3 2 1 2 2 2 2 3 4 5 3 3 4 3 4 5 7 6 6 6 6 6 5 5 4 4 4 4 4 4 5 5 5 5 4 4 4 4 4 3 3 3 3 2
2 4 2 3 2 2 2 1 5 5 5 4 5 5 5 6 6 7 7 6 6 6 6 5 5 5 5 5 4 4 4 4 4 5 5 4 4 4 4 4 3 3 3 3
1 3 2 6 2 3 5 3 2 2 5 7 7 5 4 5 7 6 5 6 5 5 4 3 3 3 4 4 5 4 4 4 4 5 5 4 4 4 4 3 3 3 3 3
3 2 3 4 2 1 4 2 2 4 5 5 7 6 3 3 5 6 6 5 5 5 5 4 4 3 4 4 4 4 4 4 4 5 5 4 4 4 3 3 3 3 3 3
4 3 4 5 4 0 5 0 2 4 6 6 5 4 2 1 3 4 4 4 5 5 5 4 3 4 5 4 3 3 3 4 4 5 5 5 5 4 3 3 3 3 3 3
3 3 5 5 5 2 3 6 3 3 5 5 4 5 4 2 3 4 5 5 5 6 5 3 3 5 5 3 2 2 2 2 3 4 5 5 4 3 3 3 3 3 3 3
3 2 6 5 1 3 5 3 2 3 3 4 5 5 5 4 4 5 5 5 6 6 4 3 4 5 4 2 1 1 2 2 2 3 4 3 3 3 3 3 3 3 3 2
4 5 5 2 1 2 3 3 3 4 4 7 7 6 5 3 4 6 6 6 5 6 5 3 3 4 4 1 2 2 2 1 1 1 2 2 3 3 3 3 3 3 3 3
0 2 3 2 2 3 4 3 3 5 6 7 6 5 4 4 5 5 5 6 6 6 5 3 3 3 3 2 3 3 2 1 1 1 1 1 2 3 3 3 3 3 3 3
0 2 4 4 3 2 3 4 4 5 5 6 8 5 4 5 5 5 5 4 5 5 4 4 3 3 2 2 3 3 1 1 1 0 1 1 2 3 4 4 5 5 4 4
4 4 3 3 3 1 3 3 4 6 5 5 6 6 5 5 4 5 5 4 5 4 4 3 3 3 2 1 2 2 1 1 0 1 1 1 1 2 2 2 3 4 5 5
4 4 3 1 2 1 2 3 4 5 6 5 4 4 5 4 3 4 5 4 4 4 3 3 3 2 1 2 2 2 1 0 0 0 1 1 1 1 1 3 2 1 3 4
2 3 2 0 0 1 3 4 5 5 5 5 4 4 5 5 4 5 4 4 4 4 3 3 3 1 1 2 2 1 0 0 0 1 1 1 1 2 2 2 1 2 3 3
2 3 3 1 1 2 3 4 5 4 5 4 3 4 5 5 4 2 2 3 4 3 2 3 2 1 1 2 2 1 0 1 1 1 1 1 1 1 1 2 2 2 1 2
2 3 3 3 2 2 3 4 4 3 4 4 3 3 3 4 4 2 2 2 3 3 2 2 2 2 1 2 2 1 0 1 1 1 1 1 1 1 1 1 1 1 2 2
3 2 2 2 1 0 1 1 2 3 4 4 3 4 3 3 3 2 1 1 2 2 2 3 2 1 2 2 2 1 1 1 1 1 1 1 1 1 1 1 1 2 2 3
2 2 3 3 3 1 1 1 3 3 3 3 3 3 4 4 3 2 2 1 1 0 1 1 2 2 2 1 1 1 1 1 1 1 1 1 1 1 1 1 1 1 2 2
3 3 3 2 2 1 1 1 2 2 2 3 4 3 3 2 2 2 1 1 1 1 3 2 1 2 1 1 1 1 1 1 1 1 1 2 1 1 1 1 2 2 1 1
3 4 4 3 2 1 1 1 2 2 2 3 3 2 1 1 1 2 2 1 2 3 3 2 2 2 2 1 1 1 1 1 1 1 1 1 1 1 1 1 1 2 2 2
3 3 3 2 1 1 1 1 2 2 2 3 3 3 3 2 2 2 2 2 3 3 3 3 2 2 2 2 2 1 1 1 1 1 1 1 1 1 1 1 1 1 1 2
3 3 3 2 2 1 0 1 2 2 2 2 3 3 2 2 2 2 3 4 4 3 2 2 2 3 3 2 1 2 2 1 1 1 1 1 1 1 1 1 1 1 1 2
2 2 2 2 2 1 0 1 1 1 2 2 3 3 3 3 3 3 3 3 3 3 2 2 4 4 4 2 2 2 2 2 2 1 2 1 1 1 1 1 1 1 1 1
2 2 1 1 1 1 0 1 1 1 1 1 2 3 3 2 1 2 2 3 4 4 2 3 4 4 4 2 1 1 1 1 1 1 1 1 1 1 1 1 1 1 1 2
2 2 2 2 1 0 1 0 1 1 1 0 0 1 1 2 2 1 1 1 2 2 2 2 3 4 2 1 1 1 1 1 2 2 1 1 1 1 1 1 1 1 2 2
1 1 1 2 2 1 1 1 1 0 1 0 1 1 1 0 0 0 0 1 1 1 1 1 0 1 1 1 1 2 2 1 1 1 1 1 1 1 1 1 1 1 2 2
1 1 1 0 0 0 1 1 1 1 1 1 1 1 0 0 1 1 1 1 1 1 1 1 1 1 1 1 1 1 1 1 1 1 1 1 1 1 1 2 1 1 1 1
Wind_Direction
230 228 208 214 244 193 157 179 176 196 184 207 196 175 163 152 142 131 130 134 141 142 143 142 140 151 159 169 174 176 175 178 186 185 181 176 175 172 172 174 178 181 174 186
339 333 304 266 255 178 167 162 152 147 190 203 165 135 132 145 149 144 145 149 150 143 139 143 149 159 159 166 170 165 168 177 175 169 169 173 179 174 169 178 182 172 184 181
293 319 9 301 257 164 135 110 145 166 193 148 121 135 156 157 148 150 150 151 151 150 150 154 157 155 167 171 162 158 167 172 168 165 170 175 176 169 175 184 183 177 183 180
129 34 231 252 282 107 102 61 63 137 153 148 149 152 148 146 145 146 143 144 146 144 143 148 144 144 150 152 153 159 167 173 173 168 174 176 173 182 190 184 180 183 186 184
123 165 260 292 326 101 117 33 47 117 119 118 118 87 59 133 138 150 150 146 146 142 138 133 131 138 128 128 146 158 172 183 182 175 176 174 181 191 188 175 180 186 182 180
127 153 218 244 277 225 101 359 304 129 137 134 102 111 235 169 120 132 129 124 127 121 110 113 126 132 129 131 139 170 191 192 184 177 178 184 189 187 178 176 188 182 177 191
149 188 247 256 286 52 137 223 248 148 152 142 146 178 188 143 117 129 120 119 121 119 116 126 126 119 121 125 157 188 181 178 173 175 179 179 177 174 169 180 182 185 195 213
150 180 247 288 30 150 201 201 141 124 136 127 124 117 116 112 118 123 117 119 121 118 114 113 114 113 108 126 180 126 98 115 169 179 180 171 167 180 183 186 193 203 207 228
183 213 247 293 170 194 158 135 134 128 126 127 124 126 123 123 132 128 128 125 120 119 110 100 109 121 119 135 106 95 90 82 137 162 179 178 180 191 196 199 203 216 213 224
105 270 316 340 42 54 76 99 126 130 134 132 128 129 128 134 135 128 124 124 118 113 110 104 98 100 119 128 114 99 95 81 41 119 194 217 205 196 195 207 214 218 218 223
278 296 353 357 14 44 63 58 72 91 113 126 125 122 125 138 136 131 127 125 121 121 127 129 118 103 101 104 104 98 88 62 19 352 213 228 236 228 213 215 209 206 214 211
208 217 198 263 308 23 76 64 93 99 93 98 114 121 121 125 131 135 136 127 123 126 135 138 124 112 102 103 103 102 86 52 4 303 267 239 237 288 300 256 238 223 217 210
193 187 168 219 337 16 83 93 89 102 112 110 99 109 115 117 124 125 123 120 130 136 135 128 119 119 134 125 110 107 117 247 305 322 293 270 227 212 276 325 344 299 256 241
137 113 95 95 131 74 95 91 85 89 97 105 106 107 110 107 107 114 125 136 137 129 127 128 125 130 188 142 120 112 149 216 258 248 264 274 256 237 215 207 264 301 298 279
64 118 145 149 105 107 104 97 89 97 98 91 95 114 122 120 119 133 143 140 130 128 141 139 136 184 217 153 140 152 223 256 266 265 267 280 279 269 235 217 223 246 288 303
88 88 90 94 102 108 104 111 108 120 118 115 117 132 137 137 136 131 128 134 136 157 174 159 174 208 175 141 137 149 241 297 334 305 305 311 298 280 265 246 255 248 245 250
115 132 129 124 182 209 148 163 156 152 141 142 161 156 139 123 114 115 142 170 165 184 189 175 191 194 152 156 159 185 232 299 344 346 324 285 265 262 271 261 252 256 256 246
155 172 170 167 171 182 180 155 157 149 151 158 155 141 138 143 155 175 189 170 129 342 283 234 190 168 171 183 179 185 193 226 260 270 283 285 271 247 252 277 272 269 287 292
141 129 116 115 117 124 139 129 132 141 150 142 143 153 167 180 181 178 146 116 158 257 276 271 210 179 220 236 190 179 210 229 256 258 252 276 290 284 254 259 278 278 258 259
112 113 110 102 87 87 116 130 124 126 142 140 139 139 155 203 186 163 153 194 232 234 235 222 209 217 231 229 181 177 188 208 237 252 249 242 243 259 267 263 258 273 280 274
119 115 112 111 98 92 143 155 134 140 155 155 164 186 205 216 202 188 172 229 257 248 233 225 210 215 218 209 196 200 207 217 222 222 229 243 247 247 265 272 277 276 279 278
130 132 132 127 112 98 188 146 132 152 163 175 188 192 188 202 213 218 216 221 233 230 223 229 225 220 212 197 210 224 214 204 218 221 229 236 231 235 244 256 266 275 285 287
121 125 119 133 167 195 171 136 156 164 169 179 184 185 192 208 203 194 240 247 231 224 220 240 239 224 209 210 220 223 225 213 211 221 225 228 230 229 237 252 263 267 273 278
101 107 122 116 98 92 104 262 247 205 190 197 194 189 182 192 236 228 224 234 226 224 228 231 225 221 207 207 211 213 215 203 197 211 207 200 201 207 240 253 267 276 280 287
124 132 127 102 83 143 246 275 64 62 85 104 241 241 195 177 190 236 243 240 223 220 252 247 230 222 198 178 181 179 174 177 179 179 173 164 182 217 260 263 271 289 293 287
149 157 168 182 192 199 197 159 154 171 137 108 325 321 342 19 146 86 32 342 335 294 284 301 286 170 149 152 159 171 181 182 170 159 165 180 206 240 260 273 283 280 290 295
131 139 132 93 312 216 165 142 150 183 175 167 211 290 325 29 69 79 78 62 45 30 13 24 58 94 127 134 131 141 148 141 148 169 183 196 210 231 239 245 255 264 275 288